Location: Obersdorf
(47.4079°N, 10.2781°E)
Time: 05:29:21
(UTC+02:00)

Nauka - Pass Details

Date: 02 October 2021
Orbit: 417 x 423 km, 51.6° (Epoch: 19 October)

Event Time Altitude Azimuth Distance (km) Brightness Sun altitude
Rises 21:05:31 0° 290° (WNW) 2,366 ? -22.4°
Reaches altitude 10° 21:07:47 10° 279° (W) 1,500 ? -22.8°
Enters shadow 21:10:23 27° 230° (SW) 833 ? -23.2°
